Location: Home
(42.5358°N, 72.7383°W)
Time: 09:58:51
(UTC-05:00)

Transit 4A - Pass Details

Date: 03 December 2021
Orbit: 864 x 981 km, 66.8° (Epoch: 21 January)

Event Time Altitude Azimuth Distance (km) Brightness Sun altitude
Exits shadow 03:22:08 33° 81° (E) 1,573 9.4 -40.0°
Drops below altitude 10° 03:26:24 10° 117° (ESE) 2,718 10.9 -39.2°
Sets 03:29:10 0° 125° (SE) 3,669 11.6 -38.7°
